N104C CYKF-ZZZZ

Flight info

Callsign N104C
Flight time N/A
Altitude
Route
Aircraft C172

Departure

Time 2026-05-06 00:58
Airport Region of Waterloo International Airport (CYKF)

Arrival

Time N/A
Airport ZZZZ
Time Latitude Longitude Altitude Speed Heading
2026-05-06 00:52 43.45665 -80.38692 1030 ft 0 kts 169°
2026-05-06 00:53 43.45659 -80.38687 1030 ft 5 kts 130°
2026-05-06 00:53 43.45701 -80.38643 1031 ft 12 kts 19°
2026-05-06 00:54 43.45766 -80.38575 1031 ft 13 kts 64°
2026-05-06 00:54 43.45808 -80.38451 1031 ft 15 kts 62°
2026-05-06 00:54 43.45865 -80.38279 1030 ft 23 kts 66°
2026-05-06 00:54 43.45938 -80.38065 1031 ft 26 kts 64°
2026-05-06 00:55 43.46018 -80.37822 1031 ft 29 kts 65°
2026-05-06 00:55 43.46105 -80.37568 1031 ft 30 kts 64°
2026-05-06 00:55 43.46192 -80.37305 1031 ft 30 kts 65°
2026-05-06 00:55 43.46277 -80.37055 1031 ft 26 kts 66°
2026-05-06 00:56 43.46343 -80.36860 1031 ft 20 kts 66°
2026-05-06 00:56 43.46401 -80.36680 1032 ft 22 kts 66°
2026-05-06 00:56 43.46494 -80.36567 1032 ft 7 kts 14°
2026-05-06 00:56 43.46500 -80.36564 1032 ft 0 kts 16°
2026-05-06 00:57 43.46525 -80.36557 1032 ft 15 kts
2026-05-06 00:57 43.46572 -80.36681 1030 ft 20 kts 248°
2026-05-06 00:57 43.46458 -80.37021 1029 ft 65 kts 245°
2026-05-06 00:58 43.46245 -80.37717 1169 ft 83 kts 248°
2026-05-06 00:58 43.46032 -80.38444 1440 ft 83 kts 251°
2026-05-06 00:58 43.45776 -80.39130 1727 ft 80 kts 225°
2026-05-06 00:58 43.45219 -80.39168 1896 ft 94 kts 161°
2026-05-06 00:59 43.44588 -80.38815 2104 ft 100 kts 158°
2026-05-06 00:59 43.44105 -80.38148 2269 ft 101 kts 112°
2026-05-06 00:59 43.44103 -80.37165 2295 ft 108 kts 71°
2026-05-06 00:59 43.44389 -80.36275 2461 ft 101 kts 63°
2026-05-06 01:00 43.44745 -80.35423 2484 ft 106 kts 62°
2026-05-06 01:00 43.45121 -80.34512 2436 ft 112 kts 58°
2026-05-06 01:00 43.45551 -80.33591 2357 ft 116 kts 57°
2026-05-06 01:00 43.45999 -80.32643 2255 ft 120 kts 56°
2026-05-06 01:01 43.46509 -80.31750 2202 ft 118 kts 39°
2026-05-06 01:01 43.47264 -80.31307 2040 ft 122 kts 13°
2026-05-06 01:01 43.48075 -80.31482 1895 ft 120 kts 328°
2026-05-06 01:01 43.48508 -80.32372 1885 ft 110 kts 273°
2026-05-06 01:02 43.48121 -80.33234 1681 ft 115 kts 212°
2026-05-06 01:02 43.47546 -80.33853 1522 ft 98 kts 239°
2026-05-06 01:02 43.47249 -80.34711 1411 ft 104 kts 246°
2026-05-06 01:02 43.46940 -80.35616 1299 ft 100 kts 244°
2026-05-06 01:03 43.46674 -80.36373 1105 ft 74 kts 245°